Powrót do katalogu

YUNHAI 2-1D

AktywnyNaukaLEO
NORAD 43912·PAYLOAD·🇨🇳 China

Wystrzelony Dec 29, 2018 z Jiuquan Satellite Launch Center

Loading…

Następne Przeloty (najbliższe 24 godziny)

TLE

ŚwieżeSource: Space-Track

Epoka: Sep 14, 2026, 13:31 UTC

1 43912U 18112D   26257.56379081  .00000054  00000-0  84347-4 0  9992
2 43912  50.0095 268.0239 0015784 299.1059  60.8276 14.29060423400363

Śledź YUNHAI 2-1D w czasie rzeczywistym z AllMySat

Download on the App Store